#timestamp,LO_Frequency,Hit,StdDev 
1513756815.4,286046999.7,N
1513756835.2,286047000.2,N
1513756855.1,286047002.0,N
1513756856.0,286047002.0,N
1513756875.8,286047002.4,N
1513756895.6,286047001.5,N
1513756915.5,286047002.6,N
1513756935.3,286047000.2,N
1513756955.1,286047000.6,N
1513756975.9,286047000.4,N
1513756995.7,286047002.6,N
1513757015.6,286047000.2,N
1513757035.4,286047000.5,N
1513757055.2,286047000.3,N
1513757075.1,286047000.4,N
1513757076.0,286047000.4,N
1513757095.8,286047001.5,N
1513757115.7,286047001.5,N
1513757135.5,286047002.1,N
1513757155.3,286047002.1,N
1513757175.2,286047001.7,N
1513757195.0,286046999.9,N
1513757195.9,286046999.9,N
1513757215.8,286047001.4,N
1513757235.6,286047000.1,N
1513757255.4,286047002.4,N
1513757275.3,286047000.0,N
1513757295.1,286047002.8,N
1513757315.8,286047002.7,N
1513757335.7,286047002.3,N
1513757355.5,286047002.2,N
1513757375.4,286047001.6,N
1513757395.2,286047001.4,N
1513757415.0,286047004.2,Y
1513757415.9,286047004.2,P
1513757435.8,286047002.5,N
1513757455.6,286047001.7,N
1513757475.5,286047002.8,N
1513757495.3,286047000.5,N
1513757515.1,286046999.8,N
1513757535.9,286047000.4,N
1513757555.7,286047000.3,N
1513757575.5,286047002.4,N
1513757595.4,286047000.4,N
1513757615.2,286046998.5,N
1513757635.1,286047001.2,N
1513757636.0,286047001.2,N
1513757655.8,286046998.3,N
1513757675.6,286046998.3,N
1513757695.5,286046999.3,N
1513757715.3,286047001.0,N
1513757735.2,286047002.7,N
1513757755.9,286047002.7,N
1513757775.0,286047000.0,N
1513757775.9,286047000.0,N
1513757795.7,286047001.1,N
1513757815.6,286047002.8,N
1513757835.4,286046999.8,N
1513757855.3,286047002.2,N
1513757875.1,286047000.1,N
1513757876.0,286047000.1,N
1513757895.8,286047000.6,N
1513757915.7,286046999.7,N
1513757935.5,286047002.3,N
1513757955.4,286047002.4,N
1513757975.2,286046999.7,N
1513757995.0,286047000.0,N
1513757995.9,286047000.0,N
1513758015.8,286047001.0,N
1513758035.6,286047001.0,N
1513758055.4,286046998.6,N
1513758075.3,286047000.8,N
1513758095.1,286047000.4,N
1513758115.9,286047000.0,N
1513758135.7,286047001.2,N
1513758155.5,286046999.2,N
1513758175.4,286046998.3,N
1513758195.2,286046999.0,N
1513758215.0,286046999.3,N
1513758215.9,286046999.3,N
1513758235.8,286046998.8,N
1513758255.6,286046998.3,N
1513758275.5,286046999.7,N
1513758295.3,286046999.7,N
1513758315.1,286047000.1,N
1513758335.9,286047001.9,N
1513758355.7,286047002.4,N
1513758375.5,286047001.0,N
1513758395.4,286047000.7,N
1513758415.2,286047000.7,N
1513758435.1,286047000.5,N
1513758436.0,286047000.5,N
1513758455.8,286047002.3,N
1513758475.7,286047002.0,N
1513758495.5,286047003.8,Y
1513758515.3,286047001.4,P
1513758535.2,286047001.6,N
1513758555.0,286047002.7,P
1513758555.9,286047002.7,Y
1513758575.8,286046999.1,P
1513758595.6,286046999.4,N
1513758615.4,286046999.4,N
1513758635.3,286046996.5,Y
1513758655.1,286046999.5,P
1513758675.8,286046998.1,P
1513758695.7,286047000.9,N
1513758715.5,286046999.9,N
1513758735.4,286047001.0,N
1513758755.2,286046999.7,N
1513758775.0,286047000.4,N
1513758775.9,286047000.4,N
1513758795.8,286047000.1,N
1513758815.6,286047001.2,N
1513758835.4,286046998.3,N
1513758855.3,286046999.1,N
1513758875.1,286046999.0,N
1513758895.9,286046999.3,N
1513758915.1,286046998.9,N
1513758916.0,286046998.9,N
1513758935.8,286046999.0,N
1513758955.6,286046999.6,N
1513758975.5,286046999.5,N
1513758995.3,286047000.4,N
1513759015.2,286047000.3,N
1513759035.9,286047000.1,N
1513759055.7,286047002.8,Y
1513759075.6,286047002.7,P
1513759095.4,286047001.9,N
1513759115.3,286047002.7,N
1513759135.1,286046999.8,N
1513759155.8,286047001.2,N
1513759175.7,286047000.7,N
1513759195.5,286046999.4,N
1513759215.4,286046999.2,N
1513759235.2,286046996.6,N
1513759255.0,286046994.9,N
1513759255.9,286046994.9,N
1513759275.8,286046995.1,N
1513759295.6,286046995.3,N
1513759315.5,286046997.6,N
1513759335.3,286046997.9,N
1513759355.1,286046997.8,N
1513759375.9,286046996.9,N
1513759395.7,286046997.9,N
1513759415.6,286046997.9,N
1513759435.4,286046995.3,N
1513759455.2,286046995.2,N
1513759475.1,286046996.3,N
1513759476.0,286046996.3,N
1513759495.8,286046995.5,N
1513759515.7,286046993.3,N
1513759535.5,286046993.8,N
1513759555.3,286046993.6,N
1513759575.2,286046994.1,N
1513759595.0,286046992.2,N
1513759595.9,286046992.2,N
1513759615.8,286046992.3,N
1513759635.6,286046992.6,N
1513759655.4,286046992.2,N
1513759675.3,286046992.2,Y
1513759695.1,286046995.2,P
1513759715.8,286046997.7,P
1513759735.7,286046997.7,N
1513759755.5,286046995.3,Y
1513759775.4,286046996.8,P
1513759795.2,286046998.3,P
1513759815.0,286046999.0,N
1513759815.9,286046999.0,N
1513759835.8,286046996.7,Y
1513759855.6,286047001.2,P
1513759875.5,286047001.0,N
1513759895.3,286046998.2,N
1513759915.1,286046999.4,N
1513759935.9,286046998.2,N
1513759955.7,286047000.5,N
1513759975.5,286047000.6,N
1513759995.4,286046999.0,N
1513760015.2,286046999.5,N
1513760035.1,286046998.6,N
1513760036.0,286046998.6,N
1513760055.1,286047001.1,N
1513760075.9,286046998.2,N
1513760095.7,286046999.3,N
1513760115.5,286046998.2,N
1513760135.4,286046999.1,N
1513760155.2,286046997.3,N
1513760175.1,286046999.3,N
1513760176.0,286046999.3,N
1513760195.8,286046998.7,N
1513760215.6,286046998.5,N
1513760235.5,286046999.6,N
1513760255.3,286046997.5,N
1513760275.1,286046997.8,N
1513760295.9,286046995.6,Y
1513760315.7,286046994.9,P
1513760335.6,286046995.8,N
1513760355.4,286046996.8,N
1513760375.2,286046994.9,Y
1513760395.1,286047000.8,P
1513760396.0,286047000.8,N
